SCP
0 0 0 0 0 0 0 0 0 0 0 0 0 0 0 0 0 0 0 0 0 0 0 0 0 0 0 0 0 0 0 0 0 0 0 0 0 0 0 0 0 0 0 0
0 0 0 0 0 0 0 0 0 0 0 0 0 0 0 0 0 0 0 0 0 0 0 0 0 0 0 0 0 0 0 0 0 0 0 0 0 0 0 0 0 0 0 0
0 0 0 0 0 0 0 0 0 0 0 0 0 0 0 0 0 0 0 0 0 0 0 0 0 0 0 0 0 0 0 0 0 0 0 0 0 0 0 0 0 0 0 0
0 0 0 0 0 0 0 0 0 0 0 0 0 0 0 0 0 0 0 0 0 0 0 0 0 0 0 0 0 0 0 0 0 0 0 0 0 0 0 0 0 0 0 0
0 0 0 0 0 0 0 0 0 0 0 0 0 0 0 0 0 0 0 0 0 0 0 0 0 0 0 0 0 0 0 0 0 0 0 0 0 0 0 0 0 0 0 0
0 0 0 0 0 0 0 0 0 0 0 0 0 0 0 0 0 0 0 0 0 0 0 0 0 0 0 0 0 0 0 0 0 0 0 0 0 0 0 0 0 0 0 0
0 0 0 0 0 0 0 0 0 0 0 0 0 0 0 -0 0 0 0 0 0 0 0 0 0 0 0 0 0 0 0 0 0 0 0 0 0 0 0 0 0 0 0 0
0 0 0 0 0 0 0 0 0 0 0 0 0 0 0 0 0 0 0 0 0 0 0 0 0 0 0 0 0 0 0 0 0 0 0 0 0 0 0 0 0 0 0 0
0 0 0 0 0 0 0 0 0 0 0 0 0 0 0 0 0 0 0 0 0 0 0 0 0 0 0 0 0 0 0 0 0 0 0 0 0 0 0 0 0 0 0 0
0 0 0 0 0 0 0 0 0 0 0 0 0 0 0 0 0 0 0 0 0 0 0 0 0 0 0 0 0 0 0 0 0 0 0 0 0 0 0 0 0 0 0 0
0 0 0 0 0 0 0 0 0 0 0 0 0 0 0 0 0 0 0 0 0 0 0 0 0 0 0 0 0 0 0 0 0 0 0 0 0 0 0 0 0 0 0 0
0 0 0 0 0 0 0 0 0 0 0 0 0 0 0 0 0 0 0 0 0 0 0 0 0 0 -0 -0 -0 0 0 0 0 0 0 0 0 0 0 0 0 0 0 0
0 0 0 0 0 0 0 0 0 0 0 0 0 0 0 0 0 0 0 0 0 0 0 0 0 -0 -0 -0 -0 -0 0 0 0 0 0 0 0 0 0 0 0 0 0 0
0 0 0 0 0 0 0 0 0 0 0 0 0 0 0 0 0 0 0 0 0 0 0 0 0 0 -0 -0 -0 0 0 0 0 0 0 0 0 0 0 0 0 0 0 0
0 0 0 0 0 0 0 0 0 0 0 0 0 0 0 0 0 0 0 0 0 0 0 0 -0 -0 -0 0 0 0 0 0 0 0 0 0 0 0 0 0 0 0 0 0
0 0 0 0 0 0 0 0 0 0 0 0 0 0 0 0 0 0 0 0 0 0 0 -0 -0 -0 0 0 0 0 0 0 0 0 0 0 0 0 0 0 0 0 0 0
0 0 0 0 0 0 0 0 0 0 0 0 0 0 0 0 0 0 0 0 0 0 0 0 0 0 0 0 0 0 0 0 0 0 0 0 0 0 0 0 0 0 0 0
0 0 0 0 0 0 0 0 0 0 0 0 0 0 0 0 0 0 0 0 0 0 0 0 0 0 0 0 0 0 0 0 0 0 0 0 0 0 0 0 0 0 0 0
0 0 0 0 0 0 0 0 0 0 0 0 0 0 0 0 0 0 0 0 0 0 0 0 0 0 0 0 0 0 0 0 0 0 0 0 0 0 0 0 0 0 0 0
0 0 0 0 0 -0 0 0 0 0 0 0 0 0 0 0 0 0 0 0 0 0 0 0 0 0 0 0 0 0 0 0 0 0 0 0 0 0 0 0 0 0 0 0
0 0 0 0 0 0 0 0 0 0 0 0 0 0 0 0 0 0 0 0 0 0 0 0 0 0 0 0 0 0 0 0 0 0 0 0 0 0 0 0 0 0 0 0
0 0 0 0 0 0 0 0 0 0 0 0 0 0 0 0 0 0 0 0 0 0 0 0 0 0 0 0 0 0 0 0 0 0 0 0 0 0 0 0 0 0 0 0
0 0 0 0 0 0 0 0 0 0 0 0 0 0 0 0 0 0 0 0 0 0 0 0 0 0 0 0 0 0 0 0 0 0 0 0 0 0 0 0 0 0 0 0
0 0 0 0 0 0 0 0 0 0 0 0 0 0 0 0 0 0 0 0 0 0 0 0 0 0 0 0 0 0 0 0 0 0 0 0 0 0 0 0 0 0 0 0
0 0 0 0 0 0 0 0 0 0 0 0 0 0 0 0 0 0 0 0 0 0 0 0 0 0 0 0 0 0 0 0 0 0 0 0 0 0 0 0 0 0 0 0
0 0 0 0 0 0 0 0 0 0 0 0 0 0 0 0 0 0 0 0 0 0 0 0 0 0 0 0 0 0 0 0 0 0 0 0 0 0 0 0 0 0 0 0
Wind_Speed_500mb
10 7 13 23 13 6 12 8 8 3 3 5 9 13 16 35 33 40 36 33 39 44 37 23 28 31 33 43 48 49 49 49 46 46 47 49 52 52 51 51 47 46 46 48
7 9 10 9 12 6 7 5 4 3 2 4 2 16 20 26 32 56 59 58 55 49 46 38 33 35 38 37 37 42 47 48 51 53 53 54 55 56 51 47 44 43 42 42
11 6 20 8 12 10 7 9 7 5 4 4 4 12 14 11 29 48 66 64 60 64 64 59 55 50 47 43 45 48 51 56 54 51 49 51 53 57 56 54 50 45 43 40
7 4 8 11 7 12 11 10 11 13 7 6 2 9 11 8 15 13 32 42 56 59 57 55 47 50 55 57 51 48 49 52 54 55 56 58 60 61 57 53 47 42 37 37
8 4 8 9 9 8 7 8 12 7 7 5 4 2 15 7 15 17 13 27 24 18 17 21 22 26 31 38 45 49 52 55 56 54 56 58 60 62 53 46 43 41 38 36
3 1 4 7 5 7 13 13 14 9 7 3 15 14 10 9 14 2 4 12 16 14 11 11 15 18 24 32 37 40 44 49 52 52 50 51 53 52 51 49 46 42 40 38
3 4 3 3 10 5 4 11 4 4 3 10 3 8 15 16 13 9 16 20 16 13 10 7 5 4 6 8 11 15 19 24 29 36 45 50 50 48 47 47 47 44 39 37
11 4 14 10 8 12 8 11 9 15 9 7 3 12 11 8 29 18 22 20 16 13 11 7 4 1 4 4 5 6 7 8 12 18 22 27 34 43 47 46 42 40 41 42
9 7 5 7 7 12 9 9 9 10 5 5 7 12 16 7 8 16 17 13 10 13 13 7 2 3 6 9 9 9 8 8 8 9 11 15 19 22 25 30 32 34 37 39
7 3 3 2 8 3 8 12 4 4 7 8 8 8 10 5 11 8 11 17 15 17 13 11 11 12 11 11 10 9 11 12 13 12 12 11 13 16 18 21 23 24 25 25
3 5 2 8 13 20 9 7 7 7 8 7 2 10 12 13 16 17 17 19 21 21 21 15 10 6 9 10 12 15 15 15 15 16 16 17 18 18 20 20 21 19 19 18
13 6 7 16 7 7 5 10 10 7 10 6 4 10 8 7 23 33 24 27 24 16 13 9 8 5 11 15 16 18 21 22 21 19 18 19 19 20 21 20 19 18 17 15
13 7 6 3 6 6 13 14 23 7 5 11 11 9 4 8 20 34 31 25 17 12 9 4 7 7 11 18 18 19 21 23 25 26 23 22 25 24 23 21 19 19 17 18
12 10 13 15 8 12 15 23 25 21 4 6 15 7 8 14 15 20 21 20 16 8 14 17 19 23 19 20 26 26 26 28 28 28 31 32 32 30 26 24 23 21 22 23
6 8 13 10 5 9 13 23 24 26 39 16 24 20 13 21 17 28 28 20 13 19 24 24 22 23 24 27 33 32 31 32 31 30 32 37 37 37 35 32 29 28 29 29
13 8 7 23 17 12 5 8 18 38 47 27 23 20 12 13 28 25 29 27 29 38 38 28 24 25 38 46 44 40 36 31 31 33 32 35 45 45 44 42 38 36 35 33
12 6 3 12 12 14 11 36 27 12 27 31 33 46 10 15 27 46 39 38 48 46 36 38 44 50 46 40 37 33 31 31 32 35 35 37 43 53 54 51 46 43 41 39
10 8 3 6 5 19 14 10 35 39 37 31 32 14 30 50 54 51 58 55 44 34 48 50 43 43 40 34 32 33 39 43 39 36 39 42 43 46 51 53 51 49 46 42
23 9 5 5 5 11 18 13 17 21 36 30 30 38 34 32 13 33 46 53 54 49 42 43 40 31 27 30 36 39 38 41 43 41 37 43 48 48 48 50 51 50 48 44
15 16 10 4 6 8 19 6 23 16 15 29 48 35 28 20 8 22 57 45 42 42 38 25 21 26 32 35 36 39 43 46 46 45 41 44 51 52 51 50 49 48 47 44
9 12 29 27 13 14 21 9 33 12 15 10 43 56 31 13 33 39 23 27 30 29 25 24 24 25 27 33 40 47 49 49 48 44 44 46 48 49 49 49 48 46 44 42
13 11 10 19 18 22 21 10 25 32 23 9 20 21 27 29 26 35 32 34 30 25 24 25 29 32 36 41 47 50 51 51 49 45 43 45 46 46 45 44 43 42 40 39
9 14 8 12 10 7 19 8 42 11 19 16 18 18 21 23 25 25 32 32 28 27 28 32 37 42 43 44 47 51 53 52 47 43 40 40 41 41 41 39 39 37 35 34
10 13 7 5 16 25 33 32 15 12 11 13 20 24 26 25 23 28 30 31 33 30 26 30 36 41 45 47 48 50 51 47 41 38 35 35 35 35 34 33 33 32 32 32
12 13 10 11 2 3 21 30 27 29 27 22 22 26 27 27 29 31 33 32 35 34 36 39 43 44 47 49 52 52 49 44 39 37 34 32 31 30 29 28 27 27 27 26
18 15 10 12 19 22 31 42 45 42 38 27 31 29 25 33 37 36 40 41 43 44 47 51 50 49 48 50 50 53 49 43 38 36 31 28 28 28 28 26 25 25 21 18
Wind_Direction_500mb
173 125 198 193 177 150 146 148 191 232 254 196 218 265 276 279 290 278 264 256 246 238 239 233 226 230 233 236 241 247 251 254 251 250 253 256 262 270 274 273 270 263 263 266
73 221 222 171 187 137 88 124 191 49 45 87 13 277 272 271 262 261 260 252 247 251 247 249 250 252 253 250 251 246 241 245 251 250 253 258 266 271 274 276 270 265 264 265
164 204 190 195 174 175 165 183 199 158 152 55 24 284 284 280 256 261 257 257 257 256 262 263 265 269 265 262 259 256 253 250 248 251 255 259 260 260 264 266 270 272 269 269
217 226 164 173 190 160 186 189 156 141 115 216 47 273 294 258 286 255 266 255 255 259 262 264 267 269 265 262 258 259 257 248 243 245 249 253 257 261 265 269 275 272 266 267
217 192 154 147 162 144 172 153 153 122 96 65 300 121 269 294 278 268 269 256 250 245 240 239 245 246 248 249 252 254 253 251 252 253 256 255 253 260 260 260 263 268 267 260
166 338 155 163 88 107 152 80 54 60 83 322 218 173 264 228 223 236 145 129 146 159 185 228 252 258 257 259 262 263 260 256 255 256 257 256 254 254 250 251 258 258 260 256
79 1 345 128 86 64 121 107 37 354 2 230 132 166 244 256 251 215 180 161 159 177 199 225 248 272 279 275 265 263 262 257 255 249 247 249 250 251 250 251 258 264 259 258
154 263 185 184 195 170 165 150 165 201 201 236 142 232 244 250 242 247 171 163 180 194 202 209 220 52 28 7 358 351 333 309 277 258 250 248 247 247 248 251 255 254 251 256
153 262 153 154 149 136 196 187 156 99 20 58 230 285 298 178 100 130 145 166 170 169 160 165 155 29 26 23 12 357 342 329 312 297 267 247 243 241 242 245 247 247 252 258
217 134 244 95 110 66 148 153 96 351 143 230 265 266 240 197 205 153 135 139 141 147 135 116 102 88 55 28 7 341 327 316 304 286 270 254 238 231 229 232 235 237 238 241
216 127 328 138 211 176 146 182 191 141 165 175 212 256 215 240 179 171 162 147 136 129 119 105 90 50 7 349 343 336 322 308 298 285 268 251 236 223 216 213 215 216 219 220
188 116 183 196 323 242 180 193 158 150 217 219 152 270 294 218 165 162 167 155 145 139 130 107 68 36 8 359 354 344 328 309 294 281 268 251 232 216 208 205 206 209 217 227
168 197 131 14 344 323 211 213 193 127 82 204 154 250 314 145 162 184 178 176 171 172 190 214 317 328 327 335 329 331 328 318 299 283 270 249 236 229 219 215 216 225 235 246
274 170 196 209 203 138 204 208 217 204 144 190 224 193 216 206 205 195 193 177 161 254 281 285 291 305 306 332 337 324 327 320 308 289 268 258 246 236 230 229 232 240 250 259
302 251 209 208 129 148 195 209 211 211 232 202 241 206 216 206 198 205 203 185 253 254 270 272 273 298 305 321 320 316 311 309 307 297 278 260 251 242 244 246 246 247 251 258
154 293 263 218 198 196 197 194 211 213 233 242 248 262 214 221 216 231 221 251 271 289 291 284 285 298 306 310 308 303 304 301 294 291 289 270 255 251 251 253 254 257 259 261
164 200 314 237 187 132 220 225 217 228 235 229 238 245 179 226 249 257 259 275 291 293 288 298 299 302 300 299 297 300 305 303 292 286 282 278 268 260 259 260 261 261 262 262
165 121 320 314 123 212 231 171 203 216 234 224 241 248 223 233 241 254 265 270 274 268 278 290 286 282 285 292 298 301 303 303 298 287 276 271 271 268 264 262 263 264 266 267
201 138 196 250 250 329 314 212 182 188 242 225 228 240 241 244 231 252 254 262 271 273 269 269 268 269 282 295 298 301 306 305 300 293 277 267 269 269 267 265 263 262 260 261
218 216 187 167 257 200 250 183 201 107 278 218 213 236 227 166 202 253 266 261 257 255 253 227 243 270 282 290 298 304 303 298 296 290 279 264 260 262 264 265 263 262 261 264
180 201 216 226 221 268 241 152 138 134 239 193 212 230 219 184 222 254 263 239 225 217 224 248 262 269 277 286 295 302 301 297 294 285 276 268 263 261 261 261 261 260 261 259
179 182 208 219 208 241 171 110 179 211 194 195 196 217 234 243 251 241 237 210 214 228 242 259 272 281 288 294 297 298 297 295 291 284 274 266 262 262 261 259 258 257 254 248
234 200 191 194 226 287 198 257 205 197 206 220 223 226 235 241 227 218 210 214 227 241 263 279 287 291 293 293 292 292 293 292 289 280 269 261 257 256 254 253 250 245 242 239
237 186 216 129 227 220 236 231 210 154 210 244 253 255 252 247 246 235 232 238 242 248 270 284 290 292 292 294 293 291 288 287 281 272 265 261 257 253 248 244 241 239 235 233
206 157 190 252 124 134 220 218 221 233 235 234 243 253 259 263 262 269 265 262 249 268 288 292 293 289 288 291 296 296 292 285 278 268 261 255 249 244 239 231 229 227 226 222
185 197 192 231 183 205 232 245 245 239 253 255 247 246 265 274 274 272 270 276 266 276 289 293 289 278 277 279 285 289 285 277 270 261 252 242 236 230 226 223 219 215 212 207
Wind_Speed_850mb
10 7 13 23 13 6 12 8 8 3 3 5 9 13 16 35 33 40 36 33 39 44 37 23 28 31 33 43 48 49 49 49 46 46 47 49 52 52 51 51 47 46 46 48
7 9 10 9 12 6 7 5 4 3 2 4 2 16 20 26 32 56 59 58 55 49 46 38 33 35 38 37 37 42 47 48 51 53 53 54 55 56 51 47 44 43 42 42
11 6 20 8 12 10 7 9 7 5 4 4 4 12 14 11 29 48 66 64 60 64 64 59 55 50 47 43 45 48 51 56 54 51 49 51 53 57 56 54 50 45 43 40
7 4 8 11 7 12 11 10 11 13 7 6 2 9 11 8 15 13 32 42 56 59 57 55 47 50 55 57 51 48 49 52 54 55 56 58 60 61 57 53 47 42 37 37
8 4 8 9 9 8 7 8 12 7 7 5 4 2 15 7 15 17 13 27 24 18 17 21 22 26 31 38 45 49 52 55 56 54 56 58 60 62 53 46 43 41 38 36
3 1 4 7 5 7 13 13 14 9 7 3 15 14 10 9 14 2 4 12 16 14 11 11 15 18 24 32 37 40 44 49 52 52 50 51 53 52 51 49 46 42 40 38
3 4 3 3 10 5 4 11 4 4 3 10 3 8 15 16 13 9 16 20 16 13 10 7 5 4 6 8 11 15 19 24 29 36 45 50 50 48 47 47 47 44 39 37
11 4 14 10 8 12 8 11 9 15 9 7 3 12 11 8 29 18 22 20 16 13 11 7 4 1 4 4 5 6 7 8 12 18 22 27 34 43 47 46 42 40 41 42
9 7 5 7 7 12 9 9 9 10 5 5 7 12 16 7 8 16 17 13 10 13 13 7 2 3 6 9 9 9 8 8 8 9 11 15 19 22 25 30 32 34 37 39
7 3 3 2 8 3 8 12 4 4 7 8 8 8 10 5 11 8 11 17 15 17 13 11 11 12 11 11 10 9 11 12 13 12 12 11 13 16 18 21 23 24 25 25
3 5 2 8 13 20 9 7 7 7 8 7 2 10 12 13 16 17 17 19 21 21 21 15 10 6 9 10 12 15 15 15 15 16 16 17 18 18 20 20 21 19 19 18
13 6 7 16 7 7 5 10 10 7 10 6 4 10 8 7 23 33 24 27 24 16 13 9 8 5 11 15 16 18 21 22 21 19 18 19 19 20 21 20 19 18 17 15
13 7 6 3 6 6 13 14 23 7 5 11 11 9 4 8 20 34 31 25 17 12 9 4 7 7 11 18 18 19 21 23 25 26 23 22 25 24 23 21 19 19 17 18
12 10 13 15 8 12 15 23 25 21 4 6 15 7 8 14 15 20 21 20 16 8 14 17 19 23 19 20 26 26 26 28 28 28 31 32 32 30 26 24 23 21 22 23
6 8 13 10 5 9 13 23 24 26 39 16 24 20 13 21 17 28 28 20 13 19 24 24 22 23 24 27 33 32 31 32 31 30 32 37 37 37 35 32 29 28 29 29
13 8 7 23 17 12 5 8 18 38 47 27 23 20 12 13 28 25 29 27 29 38 38 28 24 25 38 46 44 40 36 31 31 33 32 35 45 45 44 42 38 36 35 33
12 6 3 12 12 14 11 36 27 12 27 31 33 46 10 15 27 46 39 38 48 46 36 38 44 50 46 40 37 33 31 31 32 35 35 37 43 53 54 51 46 43 41 39
10 8 3 6 5 19 14 10 35 39 37 31 32 14 30 50 54 51 58 55 44 34 48 50 43 43 40 34 32 33 39 43 39 36 39 42 43 46 51 53 51 49 46 42
23 9 5 5 5 11 18 13 17 21 36 30 30 38 34 32 13 33 46 53 54 49 42 43 40 31 27 30 36 39 38 41 43 41 37 43 48 48 48 50 51 50 48 44
15 16 10 4 6 8 19 6 23 16 15 29 48 35 28 20 8 22 57 45 42 42 38 25 21 26 32 35 36 39 43 46 46 45 41 44 51 52 51 50 49 48 47 44
9 12 29 27 13 14 21 9 33 12 15 10 43 56 31 13 33 39 23 27 30 29 25 24 24 25 27 33 40 47 49 49 48 44 44 46 48 49 49 49 48 46 44 42
13 11 10 19 18 22 21 10 25 32 23 9 20 21 27 29 26 35 32 34 30 25 24 25 29 32 36 41 47 50 51 51 49 45 43 45 46 46 45 44 43 42 40 39
9 14 8 12 10 7 19 8 42 11 19 16 18 18 21 23 25 25 32 32 28 27 28 32 37 42 43 44 47 51 53 52 47 43 40 40 41 41 41 39 39 37 35 34
10 13 7 5 16 25 33 32 15 12 11 13 20 24 26 25 23 28 30 31 33 30 26 30 36 41 45 47 48 50 51 47 41 38 35 35 35 35 34 33 33 32 32 32
12 13 10 11 2 3 21 30 27 29 27 22 22 26 27 27 29 31 33 32 35 34 36 39 43 44 47 49 52 52 49 44 39 37 34 32 31 30 29 28 27 27 27 26
18 15 10 12 19 22 31 42 45 42 38 27 31 29 25 33 37 36 40 41 43 44 47 51 50 49 48 50 50 53 49 43 38 36 31 28 28 28 28 26 25 25 21 18
Wind_Direction_850mb
173 125 198 193 177 150 146 148 191 232 254 196 218 265 276 279 290 278 264 256 246 238 239 233 226 230 233 236 241 247 251 254 251 250 253 256 262 270 274 273 270 263 263 266
73 221 222 171 187 137 88 124 191 49 45 87 13 277 272 271 262 261 260 252 247 251 247 249 250 252 253 250 251 246 241 245 251 250 253 258 266 271 274 276 270 265 264 265
164 204 190 195 174 175 165 183 199 158 152 55 24 284 284 280 256 261 257 257 257 256 262 263 265 269 265 262 259 256 253 250 248 251 255 259 260 260 264 266 270 272 269 269
217 226 164 173 190 160 186 189 156 141 115 216 47 273 294 258 286 255 266 255 255 259 262 264 267 269 265 262 258 259 257 248 243 245 249 253 257 261 265 269 275 272 266 267
217 192 154 147 162 144 172 153 153 122 96 65 300 121 269 294 278 268 269 256 250 245 240 239 245 246 248 249 252 254 253 251 252 253 256 255 253 260 260 260 263 268 267 260
166 338 155 163 88 107 152 80 54 60 83 322 218 173 264 228 223 236 145 129 146 159 185 228 252 258 257 259 262 263 260 256 255 256 257 256 254 254 250 251 258 258 260 256
79 1 345 128 86 64 121 107 37 354 2 230 132 166 244 256 251 215 180 161 159 177 199 225 248 272 279 275 265 263 262 257 255 249 247 249 250 251 250 251 258 264 259 258
154 263 185 184 195 170 165 150 165 201 201 236 142 232 244 250 242 247 171 163 180 194 202 209 220 52 28 7 358 351 333 309 277 258 250 248 247 247 248 251 255 254 251 256
153 262 153 154 149 136 196 187 156 99 20 58 230 285 298 178 100 130 145 166 170 169 160 165 155 29 26 23 12 357 342 329 312 297 267 247 243 241 242 245 247 247 252 258
217 134 244 95 110 66 148 153 96 351 143 230 265 266 240 197 205 153 135 139 141 147 135 116 102 88 55 28 7 341 327 316 304 286 270 254 238 231 229 232 235 237 238 241
216 127 328 138 211 176 146 182 191 141 165 175 212 256 215 240 179 171 162 147 136 129 119 105 90 50 7 349 343 336 322 308 298 285 268 251 236 223 216 213 215 216 219 220
188 116 183 196 323 242 180 193 158 150 217 219 152 270 294 218 165 162 167 155 145 139 130 107 68 36 8 359 354 344 328 309 294 281 268 251 232 216 208 205 206 209 217 227
168 197 131 14 344 323 211 213 193 127 82 204 154 250 314 145 162 184 178 176 171 172 190 214 317 328 327 335 329 331 328 318 299 283 270 249 236 229 219 215 216 225 235 246
274 170 196 209 203 138 204 208 217 204 144 190 224 193 216 206 205 195 193 177 161 254 281 285 291 305 306 332 337 324 327 320 308 289 268 258 246 236 230 229 232 240 250 259
302 251 209 208 129 148 195 209 211 211 232 202 241 206 216 206 198 205 203 185 253 254 270 272 273 298 305 321 320 316 311 309 307 297 278 260 251 242 244 246 246 247 251 258
154 293 263 218 198 196 197 194 211 213 233 242 248 262 214 221 216 231 221 251 271 289 291 284 285 298 306 310 308 303 304 301 294 291 289 270 255 251 251 253 254 257 259 261
164 200 314 237 187 132 220 225 217 228 235 229 238 245 179 226 249 257 259 275 291 293 288 298 299 302 300 299 297 300 305 303 292 286 282 278 268 260 259 260 261 261 262 262
165 121 320 314 123 212 231 171 203 216 234 224 241 248 223 233 241 254 265 270 274 268 278 290 286 282 285 292 298 301 303 303 298 287 276 271 271 268 264 262 263 264 266 267
201 138 196 250 250 329 314 212 182 188 242 225 228 240 241 244 231 252 254 262 271 273 269 269 268 269 282 295 298 301 306 305 300 293 277 267 269 269 267 265 263 262 260 261
218 216 187 167 257 200 250 183 201 107 278 218 213 236 227 166 202 253 266 261 257 255 253 227 243 270 282 290 298 304 303 298 296 290 279 264 260 262 264 265 263 262 261 264
180 201 216 226 221 268 241 152 138 134 239 193 212 230 219 184 222 254 263 239 225 217 224 248 262 269 277 286 295 302 301 297 294 285 276 268 263 261 261 261 261 260 261 259
179 182 208 219 208 241 171 110 179 211 194 195 196 217 234 243 251 241 237 210 214 228 242 259 272 281 288 294 297 298 297 295 291 284 274 266 262 262 261 259 258 257 254 248
234 200 191 194 226 287 198 257 205 197 206 220 223 226 235 241 227 218 210 214 227 241 263 279 287 291 293 293 292 292 293 292 289 280 269 261 257 256 254 253 250 245 242 239
237 186 216 129 227 220 236 231 210 154 210 244 253 255 252 247 246 235 232 238 242 248 270 284 290 292 292 294 293 291 288 287 281 272 265 261 257 253 248 244 241 239 235 233
206 157 190 252 124 134 220 218 221 233 235 234 243 253 259 263 262 269 265 262 249 268 288 292 293 289 288 291 296 296 292 285 278 268 261 255 249 244 239 231 229 227 226 222
185 197 192 231 183 205 232 245 245 239 253 255 247 246 265 274 274 272 270 276 266 276 289 293 289 278 277 279 285 289 285 277 270 261 252 242 236 230 226 223 219 215 212 207